Regional Weather Roundup
Issued by NWS Kansas City/Pleasant Hill, MO

Home | Current Version | Previous Version | Graphics & Text | Print | Product List | Glossary Off
Versions: 1 2 3 4 5 6 7 8 9 10 11 12 13 14 15 16 17 18 19 20 21 22 23 24 25 26 27 28 29 30 31 32 33 34 35 36 37 38 39 40 41 42 43 44 45 46 47 48 49 50

000
ASUS43 KEAX 090110
RWREAX

WEATHER ROUNDUP FOR EASTERN KANSAS AND NORTHWEST MISSOURI
NATIONAL WEATHER SERVICE KANSAS CITY/PLEASANT HILL MO
700 PM CST THU DEC 08 2016

KSZ040-057-103>105-MOZ028-029-037-043-090200-
...KANSAS CITY METROPOLITAN AREA...

CITY           SKY/WX    TMP DP  RH WIND       PRES   REMARKS
K.C. INTL      CLEAR     19   8  62 NW6       30.62S WCI  11
K.C. DOWNTOWN  CLEAR     23  10  57 NW3       30.64S
LEES SUMMIT    CLEAR     21  10  62 NW7       30.62S WCI  12
OLATHE - IXD   CLEAR     20  10  65 NW5       30.64R WCI  13
OLATHE - OJC   CLEAR     20   9  62 NW6       30.63R WCI  12
LAWRENCE       CLEAR     16  10  77 W6        30.65S WCI   7

$$

MOZ001>008-011>017-020>025-030>033-038>040-044>046-053-054-090200-
...NORTHERN AND CENTRAL MISSOURI...

CITY           SKY/WX    TMP DP  RH WIND       PRES   REMARKS
ST. JOSEPH     CLEAR     16   9  74 NW8       30.65R WCI   5
MOSBY          CLEAR     23  12  63 W3        30.64R
WARRENSBURG    PTCLDY    19  12  73 W5        30.63S WCI  13
WHITEMAN AFB   NOT AVBL
CLINTON        PTCLDY    21  12  68 W6        30.64R WCI  14
SEDALIA        CLEAR     21  12  68 W7        30.62R WCI  12
WARSAW         NOT AVBL
CHILLICOTHE      N/A     21  10  62 NW5       30.62R WCI  15
KIRKSVILLE     CLEAR     18  10  71 W7        30.57R WCI   9

$$

MOZ041-047>049-056>058-063>065-088>090-097-090200-
...EASTERN AND SOUTHERN MISSOURI...

CITY           SKY/WX    TMP DP  RH WIND       PRES   REMARKS
ST. LOUIS INTL MOCLDY    26  11  52 W13       30.57R WCI  15
SPIRIT OF STL  CLEAR     24  13  62 W8        30.58R WCI  15
COLUMBIA       CLEAR     22  11  62 W10       30.59R WCI  11
JEFFERSON CITY CLEAR     23  12  62 W8        30.62R WCI  14
ROLLA          CLEAR     21  12  68 W12       30.56R WCI   9
OSAGE BEACH    CLEAR     23  13  65 NW9       30.61R WCI  13
SPRINGFIELD    CLEAR     22  12  65 NW7       30.59R WCI  13
BRANSON        PTCLDY    25  12  58 NW10      30.59R WCI  15
JOPLIN         CLEAR     21  14  74 NW6       30.65R WCI  13
WEST PLAINS    CLEAR     25  12  58 NW9       30.55R WCI  15

$$

IAZ060-094-KSZ022-034>040-054-083-096-NEZ052-066-093-090200-
...KANSAS...SOUTHEAST NEBRASKA AND IOWA...

CITY           SKY/WX    TMP DP  RH WIND       PRES   REMARKS
TOPEKA         CLEAR     21  10  62 NW5       30.66R WCI  15
MANHATTAN      CLEAR     19  10  68 CALM      30.66R
EMPORIA        CLEAR     19  11  70 NW6       30.65R WCI  11
CHANUTE        CLEAR     22  12  65 NW8       30.65S WCI  12
WICHITA        CLEAR     23   9  55 N7        30.65R WCI  15
OMAHA          CLEAR     17   7  64 NW8       30.64R WCI   7
LINCOLN        CLEAR     13   6  74 CALM      30.65S
FALLS CITY     CLEAR     18   9  68 W9        30.63S WCI   7
LAMONI         CLEAR     16   9  74 W9        30.57R WCI   4
DES MOINES     CLEAR     21  10  62 NW14      30.56R WCI   8

$$




USA.gov is the U.S. government's official web portal to all federal, state and local government web resources and services.